Year,Month,Day,Hour,Minute,Value (Times are PST for windgust in km/hr)
2006,12,11,00,00,6.40
2006,12,11,00,01,8.10
2006,12,11,00,02,6.40
2006,12,11,00,03,8.10
2006,12,11,00,04,8.10
2006,12,11,00,05,6.40
2006,12,11,00,06,8.10
2006,12,11,00,07,8.10
2006,12,11,00,08,4.80
2006,12,11,00,09,6.40
2006,12,11,00,10,4.80
2006,12,11,00,11,4.80
2006,12,11,00,12,6.40
2006,12,11,00,13,4.80
2006,12,11,00,14,4.80
2006,12,11,00,15,3.20
2006,12,11,00,16,3.20
2006,12,11,00,17,3.20
2006,12,11,00,18,3.20
2006,12,11,00,19,3.20
2006,12,11,00,20,3.20
2006,12,11,00,21,1.60
2006,12,11,00,22,0.00
2006,12,11,00,23,0.00
2006,12,11,00,24,1.60
2006,12,11,00,25,1.60
2006,12,11,00,26,3.20
2006,12,11,00,27,3.20
2006,12,11,00,28,3.20
2006,12,11,00,29,4.80
2006,12,11,00,30,3.20
2006,12,11,00,31,0.00
2006,12,11,00,32,1.60
2006,12,11,00,33,0.00
2006,12,11,00,34,0.00
2006,12,11,00,35,0.00
2006,12,11,00,36,0.00
2006,12,11,00,37,0.00
2006,12,11,00,38,0.00
2006,12,11,00,39,1.60
2006,12,11,00,40,1.60
2006,12,11,00,41,1.60
2006,12,11,00,42,0.00
2006,12,11,00,43,0.00
2006,12,11,00,44,0.00
2006,12,11,00,45,1.60
2006,12,11,00,46,4.80
2006,12,11,00,47,3.20
2006,12,11,00,48,3.20
2006,12,11,00,49,3.20
2006,12,11,00,50,4.80
2006,12,11,00,51,4.80
2006,12,11,00,52,6.40
2006,12,11,00,53,6.40
2006,12,11,00,54,4.80
2006,12,11,00,55,3.20
2006,12,11,00,56,1.60
2006,12,11,00,57,0.00
2006,12,11,00,58,0.00
2006,12,11,00,59,0.00
2006,12,11,01,00,0.00
2006,12,11,01,01,1.60
2006,12,11,01,02,1.60
2006,12,11,01,03,4.80
2006,12,11,01,04,3.20
2006,12,11,01,05,3.20
2006,12,11,01,06,0.00
2006,12,11,01,07,0.00
2006,12,11,01,08,0.00
2006,12,11,01,09,1.60
2006,12,11,01,10,1.60
2006,12,11,01,11,3.20
2006,12,11,01,12,3.20
2006,12,11,01,13,1.60
2006,12,11,01,14,3.20
2006,12,11,01,15,1.60
2006,12,11,01,16,4.80
2006,12,11,01,17,4.80
2006,12,11,01,18,3.20
2006,12,11,01,19,1.60
2006,12,11,01,20,6.40
2006,12,11,01,21,8.10
2006,12,11,01,22,8.10
2006,12,11,01,23,11.30
2006,12,11,01,24,4.80
2006,12,11,01,25,6.40
2006,12,11,01,26,6.40
2006,12,11,01,27,4.80
2006,12,11,01,28,9.60
2006,12,11,01,29,11.30
2006,12,11,01,30,11.30
2006,12,11,01,31,17.70
2006,12,11,01,32,11.30
2006,12,11,01,33,11.30
2006,12,11,01,34,20.90
2006,12,11,01,35,17.70
2006,12,11,01,36,14.50
2006,12,11,01,37,11.30
2006,12,11,01,38,24.20
2006,12,11,01,39,19.30
2006,12,11,01,40,22.50
2006,12,11,01,41,20.90
2006,12,11,01,42,20.90
2006,12,11,01,43,22.50
2006,12,11,01,44,22.50
2006,12,11,01,45,25.70
2006,12,11,01,46,20.90
2006,12,11,01,47,24.20
2006,12,11,01,48,24.20
2006,12,11,01,49,24.20
2006,12,11,01,50,20.90
2006,12,11,01,51,22.50
2006,12,11,01,52,25.70
2006,12,11,01,53,14.50
2006,12,11,01,54,22.50
2006,12,11,01,55,24.20
2006,12,11,01,56,30.60
2006,12,11,01,57,25.70
2006,12,11,01,58,20.90
2006,12,11,01,59,24.20
2006,12,11,02,00,19.30
2006,12,11,02,01,22.50
2006,12,11,02,02,25.70
2006,12,11,02,03,32.20
2006,12,11,02,04,19.30
2006,12,11,02,05,27.40
2006,12,11,02,06,22.50
2006,12,11,02,07,22.50
2006,12,11,02,08,19.30
2006,12,11,02,09,24.20
2006,12,11,02,10,19.30
2006,12,11,02,11,17.70
2006,12,11,02,12,24.20
2006,12,11,02,13,30.60
2006,12,11,02,14,25.70
2006,12,11,02,15,32.20
2006,12,11,02,16,22.50
2006,12,11,02,17,20.90
2006,12,11,02,18,19.30
2006,12,11,02,19,25.70
2006,12,11,02,20,30.60
2006,12,11,02,21,27.40
2006,12,11,02,22,17.70
2006,12,11,02,23,19.30
2006,12,11,02,24,24.20
2006,12,11,02,25,29.00
2006,12,11,02,26,29.00
2006,12,11,02,27,17.70
2006,12,11,02,28,17.70
2006,12,11,02,29,29.00
2006,12,11,02,30,29.00
2006,12,11,02,31,33.80
2006,12,11,02,32,30.60
2006,12,11,02,33,25.70
2006,12,11,02,34,29.00
2006,12,11,02,35,35.40
2006,12,11,02,36,27.40
2006,12,11,02,37,27.40
2006,12,11,02,38,29.00
2006,12,11,02,39,29.00
2006,12,11,02,40,37.00
2006,12,11,02,41,33.80
2006,12,11,02,42,32.20
2006,12,11,02,43,24.20
2006,12,11,02,44,27.40
2006,12,11,02,45,32.20
2006,12,11,02,46,24.20
2006,12,11,02,47,29.00
2006,12,11,02,48,25.70
2006,12,11,02,49,37.00
2006,12,11,02,50,33.80
2006,12,11,02,51,30.60
2006,12,11,02,52,29.00
2006,12,11,02,53,22.50
2006,12,11,02,54,32.20
2006,12,11,02,55,30.60
2006,12,11,02,56,33.80
2006,12,11,02,57,33.80
2006,12,11,02,58,27.40
2006,12,11,02,59,19.30
2006,12,11,03,00,30.60
2006,12,11,03,01,41.80
2006,12,11,03,02,40.20
2006,12,11,03,03,53.10
2006,12,11,03,04,33.80
2006,12,11,03,05,33.80
2006,12,11,03,06,25.70
2006,12,11,03,07,35.40
2006,12,11,03,08,35.40
2006,12,11,03,09,33.80
2006,12,11,03,10,29.00
2006,12,11,03,11,33.80
2006,12,11,03,12,40.20
2006,12,11,03,13,40.20
2006,12,11,03,14,38.60
2006,12,11,03,15,30.60
2006,12,11,03,16,30.60
2006,12,11,03,17,38.60
2006,12,11,03,18,38.60
2006,12,11,03,19,35.40
2006,12,11,03,20,30.60
2006,12,11,03,21,38.60
2006,12,11,03,22,46.70
2006,12,11,03,23,33.80
2006,12,11,03,24,37.00
2006,12,11,03,25,37.00
2006,12,11,03,26,35.40
2006,12,11,03,27,40.20
2006,12,11,03,28,40.20
2006,12,11,03,29,38.60
2006,12,11,03,30,45.10
2006,12,11,03,31,25.70
2006,12,11,03,32,22.50
2006,12,11,03,33,27.40
2006,12,11,03,34,35.40
2006,12,11,03,35,41.80
2006,12,11,03,36,33.80
2006,12,11,03,37,33.80
2006,12,11,03,38,24.20
2006,12,11,03,39,24.20
2006,12,11,03,40,30.60
2006,12,11,03,41,45.10
2006,12,11,03,42,30.60
2006,12,11,03,43,53.10
2006,12,11,03,44,35.40
2006,12,11,03,45,27.40
2006,12,11,03,46,38.60
2006,12,11,03,47,37.00
2006,12,11,03,48,32.20
2006,12,11,03,49,35.40
2006,12,11,03,50,25.70
2006,12,11,03,51,38.60
2006,12,11,03,52,43.50
2006,12,11,03,53,49.90
2006,12,11,03,54,32.20
2006,12,11,03,55,38.60
2006,12,11,03,56,29.00
2006,12,11,03,57,38.60
2006,12,11,03,58,48.30
2006,12,11,03,59,30.60
2006,12,11,04,00,33.80
2006,12,11,04,01,30.60
2006,12,11,04,02,43.50
2006,12,11,04,03,35.40
2006,12,11,04,04,35.40
2006,12,11,04,05,43.50
2006,12,11,04,06,30.60
2006,12,11,04,07,40.20
2006,12,11,04,08,27.40
2006,12,11,04,09,37.00
2006,12,11,04,10,38.60
2006,12,11,04,11,27.40
2006,12,11,04,12,27.40
2006,12,11,04,13,24.20
2006,12,11,04,14,25.70
2006,12,11,04,15,35.40
2006,12,11,04,16,29.00
2006,12,11,04,17,20.90
2006,12,11,04,18,40.20
2006,12,11,04,19,35.40
2006,12,11,04,20,20.90
2006,12,11,04,21,35.40
2006,12,11,04,22,37.00
2006,12,11,04,23,35.40
2006,12,11,04,24,30.60
2006,12,11,04,25,33.80
2006,12,11,04,26,43.50
2006,12,11,04,27,35.40
2006,12,11,04,28,25.70
2006,12,11,04,29,30.60
2006,12,11,04,30,27.40
2006,12,11,04,31,32.20
2006,12,11,04,32,29.00
2006,12,11,04,33,25.70
2006,12,11,04,34,33.80
2006,12,11,04,35,30.60
2006,12,11,04,36,27.40
2006,12,11,04,37,24.20
2006,12,11,04,38,35.40
2006,12,11,04,39,37.00
2006,12,11,04,40,25.70
2006,12,11,04,41,38.60
2006,12,11,04,42,29.00
2006,12,11,04,43,41.80
2006,12,11,04,44,30.60
2006,12,11,04,45,38.60
2006,12,11,04,46,27.40
2006,12,11,04,47,14.50
2006,12,11,04,48,40.20
2006,12,11,04,49,40.20
2006,12,11,04,50,22.50
2006,12,11,04,51,22.50
2006,12,11,04,52,25.70
2006,12,11,04,53,25.70
2006,12,11,04,54,33.80
2006,12,11,04,55,30.60
2006,12,11,04,56,32.20
2006,12,11,04,57,35.40
2006,12,11,04,58,27.40
2006,12,11,04,59,33.80
2006,12,11,05,00,29.00
2006,12,11,05,01,29.00
2006,12,11,05,02,27.40
2006,12,11,05,03,43.50
2006,12,11,05,04,22.50
2006,12,11,05,05,30.60
2006,12,11,05,06,35.40
2006,12,11,05,07,22.50
2006,12,11,05,08,33.80
2006,12,11,05,09,45.10
2006,12,11,05,10,37.00
2006,12,11,05,11,29.00
2006,12,11,05,12,46.70
2006,12,11,05,13,49.90
2006,12,11,05,14,46.70
2006,12,11,05,15,41.80
2006,12,11,05,16,35.40
2006,12,11,05,17,37.00
2006,12,11,05,18,25.70
2006,12,11,05,19,33.80
2006,12,11,05,20,38.60
2006,12,11,05,21,33.80
2006,12,11,05,22,30.60
2006,12,11,05,23,27.40
2006,12,11,05,24,41.80
2006,12,11,05,25,43.50
2006,12,11,05,26,30.60
2006,12,11,05,27,33.80
2006,12,11,05,28,30.60
2006,12,11,05,29,32.20
2006,12,11,05,30,37.00
2006,12,11,05,31,27.40
2006,12,11,05,32,27.40
2006,12,11,05,33,38.60
2006,12,11,05,34,33.80
2006,12,11,05,35,32.20
2006,12,11,05,36,40.20
2006,12,11,05,37,30.60
2006,12,11,05,38,38.60
2006,12,11,05,39,37.00
2006,12,11,05,40,25.70
2006,12,11,05,41,19.30
2006,12,11,05,42,30.60
2006,12,11,05,43,30.60
2006,12,11,05,44,22.50
2006,12,11,05,45,46.70
2006,12,11,05,46,38.60
2006,12,11,05,47,45.10
2006,12,11,05,48,38.60
2006,12,11,05,49,35.40
2006,12,11,05,50,51.50
2006,12,11,05,51,29.00
2006,12,11,05,52,35.40
2006,12,11,05,53,29.00
2006,12,11,05,54,29.00
2006,12,11,05,55,37.00
2006,12,11,05,56,48.30
2006,12,11,05,57,25.70
2006,12,11,05,58,43.50
2006,12,11,05,59,38.60
2006,12,11,06,00,32.20
2006,12,11,06,01,40.20
2006,12,11,06,02,37.00
2006,12,11,06,03,25.70
2006,12,11,06,04,24.20
2006,12,11,06,05,30.60
2006,12,11,06,06,35.40
2006,12,11,06,07,41.80
2006,12,11,06,08,41.80
2006,12,11,06,09,27.40
2006,12,11,06,10,40.20
2006,12,11,06,11,32.20
2006,12,11,06,12,30.60
2006,12,11,06,13,24.20
2006,12,11,06,14,32.20
2006,12,11,06,15,32.20
2006,12,11,06,16,32.20
2006,12,11,06,17,22.50
2006,12,11,06,18,30.60
2006,12,11,06,19,30.60
2006,12,11,06,20,27.40
2006,12,11,06,21,45.10
2006,12,11,06,22,24.20
2006,12,11,06,23,37.00
2006,12,11,06,24,17.70
2006,12,11,06,25,37.00
2006,12,11,06,26,49.90
2006,12,11,06,27,25.70
2006,12,11,06,28,38.60
2006,12,11,06,29,33.80
2006,12,11,06,30,29.00
2006,12,11,06,31,33.80
2006,12,11,06,32,38.60
2006,12,11,06,33,43.50
2006,12,11,06,34,37.00
2006,12,11,06,35,38.60
2006,12,11,06,36,40.20
2006,12,11,06,37,24.20
2006,12,11,06,38,30.60
2006,12,11,06,39,25.70
2006,12,11,06,40,37.00
2006,12,11,06,41,45.10
2006,12,11,06,42,37.00
2006,12,11,06,43,25.70
2006,12,11,06,44,17.70
2006,12,11,06,45,33.80
2006,12,11,06,46,35.40
2006,12,11,06,47,46.70
2006,12,11,06,48,20.90
2006,12,11,06,49,22.50
2006,12,11,06,50,37.00
2006,12,11,06,51,33.80
2006,12,11,06,52,30.60
2006,12,11,06,53,41.80
2006,12,11,06,54,19.30
2006,12,11,06,55,41.80
2006,12,11,06,56,38.60
2006,12,11,06,57,35.40
2006,12,11,06,58,40.20
2006,12,11,06,59,29.00
2006,12,11,07,00,33.80
2006,12,11,07,01,32.20
2006,12,11,07,02,22.50
2006,12,11,07,03,22.50
2006,12,11,07,04,38.60
2006,12,11,07,05,35.40
2006,12,11,07,06,38.60
2006,12,11,07,07,37.00
2006,12,11,07,08,33.80
2006,12,11,07,09,35.40
2006,12,11,07,10,32.20
2006,12,11,07,11,33.80
2006,12,11,07,12,27.40
2006,12,11,07,13,19.30
2006,12,11,07,14,24.20
2006,12,11,07,15,22.50
2006,12,11,07,16,30.60
2006,12,11,07,17,35.40
2006,12,11,07,18,33.80
2006,12,11,07,19,22.50
2006,12,11,07,20,37.00
2006,12,11,07,21,43.50
2006,12,11,07,22,38.60
2006,12,11,07,23,49.90
2006,12,11,07,24,45.10
2006,12,11,07,25,32.20
2006,12,11,07,26,41.80
2006,12,11,07,27,41.80
2006,12,11,07,28,40.20
2006,12,11,07,29,49.90
2006,12,11,07,30,37.00
2006,12,11,07,31,41.80
2006,12,11,07,32,53.10
2006,12,11,07,33,49.90
2006,12,11,07,34,29.00
2006,12,11,07,35,27.40
2006,12,11,07,36,37.00
2006,12,11,07,37,37.00
2006,12,11,07,38,40.20
2006,12,11,07,39,37.00
2006,12,11,07,40,33.80
2006,12,11,07,41,40.20
2006,12,11,07,42,41.80
2006,12,11,07,43,41.80
2006,12,11,07,44,40.20
2006,12,11,07,45,43.50
2006,12,11,07,46,38.60
2006,12,11,07,47,53.10
2006,12,11,07,48,32.20
2006,12,11,07,49,38.60
2006,12,11,07,50,38.60
2006,12,11,07,51,30.60
2006,12,11,07,52,40.20
2006,12,11,07,53,37.00
2006,12,11,07,54,48.30
2006,12,11,07,55,38.60
2006,12,11,07,56,41.80
2006,12,11,07,57,46.70
2006,12,11,07,58,35.40
2006,12,11,07,59,40.20
2006,12,11,08,00,35.40
2006,12,11,08,01,38.60
2006,12,11,08,02,38.60
2006,12,11,08,03,30.60
2006,12,11,08,04,46.70
2006,12,11,08,05,43.50
2006,12,11,08,06,32.20
2006,12,11,08,07,46.70
2006,12,11,08,08,40.20
2006,12,11,08,09,45.10
2006,12,11,08,10,45.10
2006,12,11,08,11,46.70
2006,12,11,08,12,43.50
2006,12,11,08,13,38.60
2006,12,11,08,14,32.20
2006,12,11,08,15,30.60
2006,12,11,08,16,37.00
2006,12,11,08,17,37.00
2006,12,11,08,18,37.00
2006,12,11,08,19,46.70
2006,12,11,08,20,43.50
2006,12,11,08,21,37.00
2006,12,11,08,22,37.00
2006,12,11,08,23,33.80
2006,12,11,08,24,48.30
2006,12,11,08,25,40.20
2006,12,11,08,26,29.00
2006,12,11,08,27,37.00
2006,12,11,08,28,37.00
2006,12,11,08,29,53.10
2006,12,11,08,30,30.60
2006,12,11,08,31,29.00
2006,12,11,08,32,27.40
2006,12,11,08,33,40.20
2006,12,11,08,34,37.00
2006,12,11,08,35,48.30
2006,12,11,08,36,38.60
2006,12,11,08,37,51.50
2006,12,11,08,38,43.50
2006,12,11,08,39,43.50
2006,12,11,08,40,37.00
2006,12,11,08,41,43.50
2006,12,11,08,42,37.00
2006,12,11,08,43,41.80
2006,12,11,08,44,46.70
2006,12,11,08,45,46.70
2006,12,11,08,46,40.20
2006,12,11,08,47,30.60
2006,12,11,08,48,38.60
2006,12,11,08,49,51.50
2006,12,11,08,50,38.60
2006,12,11,08,51,46.70
2006,12,11,08,52,40.20
2006,12,11,08,53,41.80
2006,12,11,08,54,35.40
2006,12,11,08,55,43.50
2006,12,11,08,56,37.00
2006,12,11,08,57,37.00
2006,12,11,08,58,38.60
2006,12,11,08,59,53.10
2006,12,11,09,00,41.80
2006,12,11,09,01,41.80
2006,12,11,09,02,41.80
2006,12,11,09,03,45.10
2006,12,11,09,04,38.60
2006,12,11,09,05,30.60
2006,12,11,09,06,33.80
2006,12,11,09,07,35.40
2006,12,11,09,08,30.60
2006,12,11,09,09,45.10
2006,12,11,09,10,48.30
2006,12,11,09,11,37.00
2006,12,11,09,12,27.40
2006,12,11,09,13,35.40
2006,12,11,09,14,37.00
2006,12,11,09,15,43.50
2006,12,11,09,16,45.10
2006,12,11,09,17,43.50
2006,12,11,09,18,46.70
2006,12,11,09,19,67.60
2006,12,11,09,20,46.70
2006,12,11,09,21,37.00
2006,12,11,09,22,48.30
2006,12,11,09,23,48.30
2006,12,11,09,24,43.50
2006,12,11,09,25,48.30
2006,12,11,09,26,37.00
2006,12,11,09,27,43.50
2006,12,11,09,28,45.10
2006,12,11,09,29,45.10
2006,12,11,09,30,51.50
2006,12,11,09,31,48.30
2006,12,11,09,32,54.70
2006,12,11,09,33,53.10
2006,12,11,09,34,45.10
2006,12,11,09,35,41.80
2006,12,11,09,36,64.40
2006,12,11,09,37,53.10
2006,12,11,09,38,41.80
2006,12,11,09,39,38.60
2006,12,11,09,40,35.40
2006,12,11,09,41,48.30
2006,12,11,09,42,49.90
2006,12,11,09,43,53.10
2006,12,11,09,44,46.70
2006,12,11,09,45,38.60
2006,12,11,09,46,54.70
2006,12,11,09,47,41.80
2006,12,11,09,48,37.00
2006,12,11,09,49,40.20
2006,12,11,09,50,38.60
2006,12,11,09,51,37.00
2006,12,11,09,52,45.10
2006,12,11,09,53,32.20
2006,12,11,09,54,38.60
2006,12,11,09,55,38.60
2006,12,11,09,56,48.30
2006,12,11,09,57,41.80
2006,12,11,09,58,43.50
2006,12,11,09,59,33.80
2006,12,11,10,00,54.70
2006,12,11,10,01,45.10
2006,12,11,10,02,37.00
2006,12,11,10,03,43.50
2006,12,11,10,04,45.10
2006,12,11,10,05,27.40
2006,12,11,10,06,29.00
2006,12,11,10,07,53.10
2006,12,11,10,08,49.90
2006,12,11,10,09,46.70
2006,12,11,10,10,46.70
2006,12,11,10,11,46.70
2006,12,11,10,12,41.80
2006,12,11,10,13,40.20
2006,12,11,10,14,56.30
2006,12,11,10,15,53.10
2006,12,11,10,16,45.10
2006,12,11,10,17,32.20
2006,12,11,10,18,45.10
2006,12,11,10,19,46.70
2006,12,11,10,20,53.10
2006,12,11,10,21,45.10
2006,12,11,10,22,46.70
2006,12,11,10,23,43.50
2006,12,11,10,24,35.40
2006,12,11,10,25,43.50
2006,12,11,10,26,33.80
2006,12,11,10,27,32.20
2006,12,11,10,28,40.20
2006,12,11,10,29,37.00
2006,12,11,10,30,40.20
2006,12,11,10,31,41.80
2006,12,11,10,32,33.80
2006,12,11,10,33,33.80
2006,12,11,10,34,38.60
2006,12,11,10,35,56.30
2006,12,11,10,36,40.20
2006,12,11,10,37,45.10
2006,12,11,10,38,45.10
2006,12,11,10,39,33.80
2006,12,11,10,40,45.10
2006,12,11,10,41,45.10
2006,12,11,10,42,45.10
2006,12,11,10,43,41.80
2006,12,11,10,44,54.70
2006,12,11,10,45,40.20
2006,12,11,10,46,38.60
2006,12,11,10,47,41.80
2006,12,11,10,48,29.00
2006,12,11,10,49,40.20
2006,12,11,10,50,41.80
2006,12,11,10,51,48.30
2006,12,11,10,52,40.20
2006,12,11,10,53,51.50
2006,12,11,10,54,24.20
2006,12,11,10,55,40.20
2006,12,11,10,56,41.80
2006,12,11,10,57,45.10
2006,12,11,10,58,46.70
2006,12,11,10,59,41.80
2006,12,11,11,00,45.10
2006,12,11,11,01,37.00
2006,12,11,11,02,46.70
2006,12,11,11,03,33.80
2006,12,11,11,04,41.80
2006,12,11,11,05,35.40
2006,12,11,11,06,49.90
2006,12,11,11,07,45.10
2006,12,11,11,08,38.60
2006,12,11,11,09,46.70
2006,12,11,11,10,35.40
2006,12,11,11,11,38.60
2006,12,11,11,12,45.10
2006,12,11,11,13,33.80
2006,12,11,11,14,38.60
2006,12,11,11,15,40.20
2006,12,11,11,16,40.20
2006,12,11,11,17,32.20
2006,12,11,11,18,40.20
2006,12,11,11,19,30.60
2006,12,11,11,20,51.50
2006,12,11,11,21,46.70
2006,12,11,11,22,29.00
2006,12,11,11,23,45.10
2006,12,11,11,24,33.80
2006,12,11,11,25,22.50
2006,12,11,11,26,41.80
2006,12,11,11,27,40.20
2006,12,11,11,28,30.60
2006,12,11,11,29,41.80
2006,12,11,11,30,49.90
2006,12,11,11,31,43.50
2006,12,11,11,32,56.30
2006,12,11,11,33,33.80
2006,12,11,11,34,32.20
2006,12,11,11,35,38.60
2006,12,11,11,36,40.20
2006,12,11,11,37,40.20
2006,12,11,11,38,30.60
2006,12,11,11,39,33.80
2006,12,11,11,40,35.40
2006,12,11,11,41,40.20
2006,12,11,11,42,29.00
2006,12,11,11,43,32.20
2006,12,11,11,44,30.60
2006,12,11,11,45,45.10
2006,12,11,11,46,29.00
2006,12,11,11,47,30.60
2006,12,11,11,48,40.20
2006,12,11,11,49,49.90
2006,12,11,11,50,37.00
2006,12,11,11,51,29.00
2006,12,11,11,52,20.90
2006,12,11,11,53,33.80
2006,12,11,11,54,29.00
2006,12,11,11,55,30.60
2006,12,11,11,56,32.20
2006,12,11,11,57,33.80
2006,12,11,11,58,30.60
2006,12,11,11,59,29.00
2006,12,11,12,00,24.20
2006,12,11,12,01,43.50
2006,12,11,12,02,40.20
2006,12,11,12,03,27.40
2006,12,11,12,04,32.20
2006,12,11,12,05,33.80
2006,12,11,12,06,33.80
2006,12,11,12,07,41.80
2006,12,11,12,08,37.00
2006,12,11,12,09,30.60
2006,12,11,12,10,41.80
2006,12,11,12,11,41.80
2006,12,11,12,12,46.70
2006,12,11,12,13,41.80
2006,12,11,12,14,40.20
2006,12,11,12,15,46.70
2006,12,11,12,16,57.90
2006,12,11,12,17,54.70
2006,12,11,12,18,43.50
2006,12,11,12,19,45.10
2006,12,11,12,20,43.50
2006,12,11,12,21,40.20
2006,12,11,12,22,38.60
2006,12,11,12,23,38.60
2006,12,11,12,24,33.80
2006,12,11,12,25,46.70
2006,12,11,12,26,37.00
2006,12,11,12,27,32.20
2006,12,11,12,28,41.80
2006,12,11,12,29,46.70
2006,12,11,12,30,51.50
2006,12,11,12,31,49.90
2006,12,11,12,32,49.90
2006,12,11,12,33,43.50
2006,12,11,12,34,35.40
2006,12,11,12,35,38.60
2006,12,11,12,36,53.10
2006,12,11,12,37,48.30
2006,12,11,12,38,38.60
2006,12,11,12,39,53.10
2006,12,11,12,40,49.90
2006,12,11,12,41,33.80
2006,12,11,12,42,48.30
2006,12,11,12,43,48.30
2006,12,11,12,44,53.10
2006,12,11,12,45,43.50
2006,12,11,12,46,48.30
2006,12,11,12,47,51.50
2006,12,11,12,48,37.00
2006,12,11,12,49,37.00
2006,12,11,12,50,46.70
2006,12,11,12,51,51.50
2006,12,11,12,52,57.90
2006,12,11,12,53,48.30
2006,12,11,12,54,46.70
2006,12,11,12,55,48.30
2006,12,11,12,56,40.20
2006,12,11,12,57,43.50
2006,12,11,12,58,40.20
2006,12,11,12,59,48.30
2006,12,11,13,00,40.20
2006,12,11,13,01,38.60
2006,12,11,13,02,45.10
2006,12,11,13,03,29.00
2006,12,11,13,04,43.50
2006,12,11,13,05,45.10
2006,12,11,13,06,48.30
2006,12,11,13,07,62.70
2006,12,11,13,08,62.70
2006,12,11,13,09,45.10
2006,12,11,13,10,38.60
2006,12,11,13,11,41.80
2006,12,11,13,12,45.10
2006,12,11,13,13,51.50
2006,12,11,13,14,48.30
2006,12,11,13,15,41.80
2006,12,11,13,16,40.20
2006,12,11,13,17,49.90
2006,12,11,13,18,53.10
2006,12,11,13,19,35.40
2006,12,11,13,20,61.20
2006,12,11,13,21,59.50
2006,12,11,13,22,46.70
2006,12,11,13,23,54.70
2006,12,11,13,24,54.70
2006,12,11,13,25,49.90
2006,12,11,13,26,51.50
2006,12,11,13,27,46.70
2006,12,11,13,28,49.90
2006,12,11,13,29,40.20
2006,12,11,13,30,43.50
2006,12,11,13,31,54.70
2006,12,11,13,32,48.30
2006,12,11,13,33,45.10
2006,12,11,13,34,49.90
2006,12,11,13,35,35.40
2006,12,11,13,36,32.20
2006,12,11,13,37,32.20
2006,12,11,13,38,24.20
2006,12,11,13,39,53.10
2006,12,11,13,40,35.40
2006,12,11,13,41,45.10
2006,12,11,13,42,37.00
2006,12,11,13,43,35.40
2006,12,11,13,44,32.20
2006,12,11,13,45,48.30
2006,12,11,13,46,38.60
2006,12,11,13,47,51.50
2006,12,11,13,48,35.40
2006,12,11,13,49,30.60
2006,12,11,13,50,43.50
2006,12,11,13,51,38.60
2006,12,11,13,52,41.80
2006,12,11,13,53,32.20
2006,12,11,13,54,35.40
2006,12,11,13,55,46.70
2006,12,11,13,56,32.20
2006,12,11,13,57,41.80
2006,12,11,13,58,27.40
2006,12,11,13,59,30.60
2006,12,11,14,00,30.60
2006,12,11,14,01,40.20
2006,12,11,14,02,33.80
2006,12,11,14,03,53.10
2006,12,11,14,04,35.40
2006,12,11,14,05,37.00
2006,12,11,14,06,37.00
2006,12,11,14,07,30.60
2006,12,11,14,08,38.60
2006,12,11,14,09,29.00
2006,12,11,14,10,33.80
2006,12,11,14,11,25.70
2006,12,11,14,12,30.60
2006,12,11,14,13,38.60
2006,12,11,14,14,35.40
2006,12,11,14,15,37.00
2006,12,11,14,16,46.70
2006,12,11,14,17,33.80
2006,12,11,14,18,30.60
2006,12,11,14,19,22.50
2006,12,11,14,20,25.70
2006,12,11,14,21,24.20
2006,12,11,14,22,32.20
2006,12,11,14,23,30.60
2006,12,11,14,24,30.60
2006,12,11,14,25,33.80
2006,12,11,14,26,22.50
2006,12,11,14,27,24.20
2006,12,11,14,28,16.10
2006,12,11,14,29,33.80
2006,12,11,14,30,29.00
2006,12,11,14,31,33.80
2006,12,11,14,32,29.00
2006,12,11,14,33,33.80
2006,12,11,14,34,32.20
2006,12,11,14,35,24.20
2006,12,11,14,36,17.70
2006,12,11,14,37,17.70
2006,12,11,14,38,17.70
2006,12,11,14,39,19.30
2006,12,11,14,40,9.60
2006,12,11,14,41,14.50
2006,12,11,14,42,16.10
2006,12,11,14,43,12.90
2006,12,11,14,44,19.30
2006,12,11,14,45,11.30
2006,12,11,14,46,11.30
2006,12,11,14,47,16.10
2006,12,11,14,48,30.60
2006,12,11,14,49,11.30
2006,12,11,14,50,16.10
2006,12,11,14,51,17.70
2006,12,11,14,52,17.70
2006,12,11,14,53,27.40
2006,12,11,14,54,19.30
2006,12,11,14,55,20.90
2006,12,11,14,56,17.70
2006,12,11,14,57,19.30
2006,12,11,14,58,16.10
2006,12,11,14,59,24.20
2006,12,11,15,00,11.30
2006,12,11,15,01,22.50
2006,12,11,15,02,19.30
2006,12,11,15,03,20.90
2006,12,11,15,04,20.90
2006,12,11,15,05,24.20
2006,12,11,15,06,25.70
2006,12,11,15,07,19.30
2006,12,11,15,08,16.10
2006,12,11,15,09,16.10
2006,12,11,15,10,14.50
2006,12,11,15,11,25.70
2006,12,11,15,12,24.20
2006,12,11,15,13,16.10
2006,12,11,15,14,27.40
2006,12,11,15,15,27.40
2006,12,11,15,16,17.70
2006,12,11,15,17,17.70
2006,12,11,15,18,27.40
2006,12,11,15,19,27.40
2006,12,11,15,20,22.50
2006,12,11,15,21,24.20
2006,12,11,15,22,19.30
2006,12,11,15,23,24.20
2006,12,11,15,24,24.20
2006,12,11,15,25,25.70
2006,12,11,15,26,20.90
2006,12,11,15,27,25.70
2006,12,11,15,28,25.70
2006,12,11,15,29,38.60
2006,12,11,15,30,35.40
2006,12,11,15,31,35.40
2006,12,11,15,32,22.50
2006,12,11,15,33,25.70
2006,12,11,15,34,29.00
2006,12,11,15,35,38.60
2006,12,11,15,36,35.40
2006,12,11,15,37,37.00
2006,12,11,15,38,27.40
2006,12,11,15,39,33.80
2006,12,11,15,40,41.80
2006,12,11,15,41,41.80
2006,12,11,15,42,41.80
2006,12,11,15,43,35.40
2006,12,11,15,44,37.00
2006,12,11,15,45,30.60
2006,12,11,15,46,29.00
2006,12,11,15,47,37.00
2006,12,11,15,48,32.20
2006,12,11,15,49,29.00
2006,12,11,15,50,25.70
2006,12,11,15,51,24.20
2006,12,11,15,52,35.40
2006,12,11,15,53,30.60
2006,12,11,15,54,29.00
2006,12,11,15,55,29.00
2006,12,11,15,56,24.20
2006,12,11,15,57,22.50
2006,12,11,15,58,24.20
2006,12,11,15,59,30.60
2006,12,11,16,00,25.70
2006,12,11,16,01,35.40
2006,12,11,16,02,30.60
2006,12,11,16,03,27.40
2006,12,11,16,04,27.40
2006,12,11,16,05,27.40
2006,12,11,16,06,30.60
2006,12,11,16,07,22.50
2006,12,11,16,08,25.70
2006,12,11,16,09,24.20
2006,12,11,16,10,20.90
2006,12,11,16,11,14.50
2006,12,11,16,12,27.40
2006,12,11,16,13,22.50
2006,12,11,16,14,30.60
2006,12,11,16,15,20.90
2006,12,11,16,16,20.90
2006,12,11,16,17,25.70
2006,12,11,16,18,22.50
2006,12,11,16,19,24.20
2006,12,11,16,20,14.50
2006,12,11,16,21,19.30
2006,12,11,16,22,11.30
2006,12,11,16,23,11.30
2006,12,11,16,24,20.90
2006,12,11,16,25,24.20
2006,12,11,16,26,22.50
2006,12,11,16,27,16.10
2006,12,11,16,28,16.10
2006,12,11,16,29,16.10
2006,12,11,16,30,17.70
2006,12,11,16,31,22.50
2006,12,11,16,32,19.30
2006,12,11,16,33,19.30
2006,12,11,16,34,20.90
2006,12,11,16,35,24.20
2006,12,11,16,36,19.30
2006,12,11,16,37,24.20
2006,12,11,16,38,27.40
2006,12,11,16,39,24.20
2006,12,11,16,40,19.30
2006,12,11,16,41,29.00
2006,12,11,16,42,19.30
2006,12,11,16,43,9.60
2006,12,11,16,44,25.70
2006,12,11,16,45,35.40
2006,12,11,16,46,24.20
2006,12,11,16,47,37.00
2006,12,11,16,48,32.20
2006,12,11,16,49,25.70
2006,12,11,16,50,17.70
2006,12,11,16,51,25.70
2006,12,11,16,52,30.60
2006,12,11,16,53,20.90
2006,12,11,16,54,22.50
2006,12,11,16,55,24.20
2006,12,11,16,56,25.70
2006,12,11,16,57,25.70
2006,12,11,16,58,22.50
2006,12,11,16,59,17.70
2006,12,11,17,00,20.90
2006,12,11,17,01,25.70
2006,12,11,17,02,32.20
2006,12,11,17,03,27.40
2006,12,11,17,04,19.30
2006,12,11,17,05,22.50
2006,12,11,17,06,24.20
2006,12,11,17,07,19.30
2006,12,11,17,08,29.00
2006,12,11,17,09,24.20
2006,12,11,17,10,27.40
2006,12,11,17,11,24.20
2006,12,11,17,12,17.70
2006,12,11,17,13,17.70
2006,12,11,17,14,24.20
2006,12,11,17,15,16.10
2006,12,11,17,16,25.70
2006,12,11,17,17,27.40
2006,12,11,17,18,24.20
2006,12,11,17,19,20.90
2006,12,11,17,20,22.50
2006,12,11,17,21,19.30
2006,12,11,17,22,27.40
2006,12,11,17,23,24.20